RYR4789 EGKK-LATI

Flight info

Callsign RYR4789
Flight time N/A
Altitude 23000
Route DVR L9 KONAN/N0456F330 DCT KOK DCT REMBA DCT LIRSU DCT VIBOM/N0455F350 DCT NOMBO DCT RIDAR DCT RADIZ DCT DOL DCT NIVES DCT ELTIB DCT GLOMY DCT PETAK
Aircraft B738/M-SDE2E3FGHIRWXY/LB1

Departure

Time 2026-05-04 17:41
Airport London Gatwick Airport (EGKK)

Arrival

Time N/A
Airport Tirana International Airport Mother Teresa (LATI)
Time Latitude Longitude Altitude Speed Heading
2026-05-04 17:08 51.15532 -0.17169 199 ft 0 kts 135°
2026-05-04 17:20 51.15540 -0.17181 199 ft 2 kts 137°
2026-05-04 17:20 51.15551 -0.17198 199 ft 2 kts 134°
2026-05-04 17:21 51.15572 -0.17231 199 ft 2 kts 135°
2026-05-04 17:21 51.15591 -0.17262 199 ft 1 kts 153°
2026-05-04 17:22 51.15604 -0.17262 199 ft 2 kts 214°
2026-05-04 17:22 51.15611 -0.17250 199 ft 0 kts 252°
2026-05-04 17:23 51.15612 -0.17237 199 ft 0 kts 257°
2026-05-04 17:24 51.15612 -0.17241 199 ft 1 kts 257°
2026-05-04 17:25 51.15607 -0.17275 199 ft 3 kts 256°
2026-05-04 17:25 51.15564 -0.17444 199 ft 10 kts 228°
2026-05-04 17:26 51.15516 -0.17665 199 ft 15 kts 258°
2026-05-04 17:26 51.15451 -0.18139 199 ft 13 kts 259°
2026-05-04 17:27 51.15383 -0.18275 199 ft 3 kts 174°
2026-05-04 17:27 51.15358 -0.18269 199 ft 2 kts 169°
2026-05-04 17:28 51.15272 -0.18240 199 ft 0 kts 167°
2026-05-04 17:30 51.15189 -0.18271 199 ft 7 kts 242°
2026-05-04 17:31 51.15129 -0.18725 199 ft 31 kts 258°
2026-05-04 17:31 51.15005 -0.19628 199 ft 21 kts 258°
2026-05-04 17:32 51.14954 -0.19995 199 ft 19 kts 258°
2026-05-04 17:33 51.14843 -0.20805 199 ft 31 kts 258°
2026-05-04 17:33 51.14802 -0.21095 199 ft 21 kts 255°
2026-05-04 17:34 51.14714 -0.21401 199 ft 0 kts 176°
2026-05-04 17:39 51.14662 -0.21359 199 ft 7 kts 147°
2026-05-04 17:39 51.14620 -0.21330 198 ft 0 kts 164°
2026-05-04 17:39 51.14617 -0.21328 199 ft 0 kts 163°
2026-05-04 17:40 51.14571 -0.21300 199 ft 9 kts 150°
2026-05-04 17:40 51.14521 -0.21196 199 ft 12 kts 98°
2026-05-04 17:40 51.14525 -0.21116 199 ft 0 kts 78°
2026-05-04 17:40 51.14529 -0.21087 199 ft 11 kts 78°
2026-05-04 17:41 51.14623 -0.20417 199 ft 124 kts 77°
2026-05-04 17:41 51.14884 -0.18492 302 ft 219 kts 77°
2026-05-04 17:41 51.15242 -0.15855 842 ft 258 kts 76°
2026-05-04 17:41 51.15667 -0.12853 1237 ft 294 kts 76°
2026-05-04 17:42 51.16153 -0.09635 2139 ft 282 kts 74°
2026-05-04 17:42 51.16591 -0.06814 2292 ft 253 kts 76°
2026-05-04 17:42 51.16888 -0.04130 1961 ft 248 kts 79°
2026-05-04 17:42 51.17144 -0.01378 2003 ft 249 kts 79°
2026-05-04 17:43 51.17398 0.01385 2259 ft 253 kts 79°
2026-05-04 17:43 51.17675 0.04138 2505 ft 254 kts 77°
2026-05-04 17:43 51.18006 0.06920 2754 ft 256 kts 75°
2026-05-04 17:43 51.18393 0.09721 2979 ft 258 kts 77°
2026-05-04 17:44 51.18301 0.12591 3034 ft 264 kts 105°
2026-05-04 17:44 51.17548 0.15247 3261 ft 265 kts 111°
2026-05-04 17:44 51.16979 0.18060 3440 ft 265 kts 98°
2026-05-04 17:44 51.16765 0.20948 3662 ft 265 kts 91°
2026-05-04 17:45 51.16669 0.23905 3888 ft 266 kts 89°
2026-05-04 17:45 51.16626 0.26862 4114 ft 267 kts 87°
2026-05-04 17:45 51.16610 0.29818 4338 ft 269 kts 87°
2026-05-04 17:45 51.16603 0.32792 4631 ft 269 kts 86°
2026-05-04 17:46 51.16601 0.35790 4959 ft 272 kts 86°
2026-05-04 17:46 51.16600 0.38828 5285 ft 272 kts 86°
2026-05-04 17:46 51.16604 0.41877 5628 ft 279 kts 86°
2026-05-04 17:46 51.16606 0.44947 5962 ft 283 kts 86°
2026-05-04 17:47 51.16605 0.48117 6019 ft 283 kts 86°
2026-05-04 17:47 51.16600 0.51205 6012 ft 278 kts 86°
2026-05-04 17:47 51.16603 0.54325 6020 ft 283 kts 86°
2026-05-04 17:47 51.16600 0.57419 6426 ft 282 kts 86°
2026-05-04 17:48 51.16600 0.60609 6934 ft 291 kts 86°
2026-05-04 17:48 51.16601 0.63824 7555 ft 294 kts 86°
2026-05-04 17:48 51.16598 0.66022 8065 ft 307 kts 88°
2026-05-04 17:48 51.16596 0.70836 9073 ft 346 kts 89°
2026-05-04 17:49 51.16587 0.74757 9818 ft 372 kts 90°
2026-05-04 17:49 51.16573 0.79023 10574 ft 394 kts 90°
2026-05-04 17:49 51.16556 0.83473 11330 ft 403 kts 91°
2026-05-04 17:49 51.16537 0.87948 12076 ft 408 kts 92°
2026-05-04 17:50 51.16514 0.92482 12825 ft 415 kts 92°
2026-05-04 17:50 51.16489 0.97099 13574 ft 422 kts 92°
2026-05-04 17:50 51.16463 1.01784 14323 ft 428 kts 92°
2026-05-04 17:50 51.16435 1.06575 15079 ft 434 kts 92°
2026-05-04 17:51 51.16405 1.11366 15824 ft 440 kts 92°
2026-05-04 17:51 51.16372 1.16276 16579 ft 446 kts 93°
2026-05-04 17:51 51.16336 1.21181 17321 ft 452 kts 93°
2026-05-04 17:51 51.16297 1.26259 18079 ft 460 kts 93°
2026-05-04 17:52 51.16254 1.31359 18829 ft 467 kts 93°
2026-05-04 17:52 51.16203 1.36609 19586 ft 475 kts 94°
2026-05-04 17:52 51.16020 1.41817 20328 ft 482 kts 97°
2026-05-04 17:52 51.15728 1.47152 21079 ft 489 kts 98°
2026-05-04 17:53 51.15429 1.52577 21832 ft 495 kts 98°
2026-05-04 17:53 51.15137 1.58078 22586 ft 501 kts 98°
2026-05-04 17:53 51.14843 1.63633 23010 ft 512 kts 98°
2026-05-04 17:53 51.14546 1.69320 23016 ft 512 kts 98°
2026-05-04 17:54 51.14263 1.74916 23018 ft 508 kts 98°
2026-05-04 17:54 51.13978 1.80529 23020 ft 508 kts 98°
2026-05-04 17:54 51.13689 1.86139 23020 ft 509 kts 98°
2026-05-04 17:54 51.13398 1.91737 23022 ft 509 kts 98°
2026-05-04 17:55 51.13106 1.97316 23022 ft 509 kts 98°
2026-05-04 17:55 51.12810 2.02913 23022 ft 509 kts 98°
2026-05-04 17:55 51.12738 2.04288 23021 ft 509 kts 98°
2026-05-04 17:55 51.12547 2.07861 23021 ft 509 kts 98°
2026-05-04 17:56 51.12270 2.13028 23020 ft 509 kts 98°
2026-05-04 17:56 51.12215 2.14039 23020 ft 509 kts 98°
2026-05-04 17:56 51.11924 2.19408 23020 ft 509 kts 98°
2026-05-04 17:56 51.11617 2.25031 23018 ft 509 kts 98°
2026-05-04 17:57 51.11308 2.30643 23015 ft 509 kts 98°
2026-05-04 17:57 51.10995 2.36256 23012 ft 509 kts 98°
2026-05-04 17:57 51.10679 2.41885 23010 ft 509 kts 98°
2026-05-04 17:57 51.10365 2.47434 23007 ft 509 kts 98°
2026-05-04 17:58 51.10047 2.53016 23004 ft 509 kts 98°
2026-05-04 17:58 51.09723 2.58640 23000 ft 509 kts 98°
2026-05-04 17:58 51.09302 2.64210 22993 ft 506 kts 104°
2026-05-04 17:58 51.08517 2.69607 22995 ft 501 kts 111°
2026-05-04 17:59 51.07543 2.74963 22995 ft 500 kts 112°
2026-05-04 17:59 51.06584 2.80213 22993 ft 501 kts 111°
2026-05-04 17:59 51.04661 2.90854 22992 ft 501 kts 111°
2026-05-04 18:00 51.03691 2.96181 22993 ft 502 kts 111°
2026-05-04 18:00 51.02713 3.01527 22993 ft 504 kts 111°
2026-05-04 18:00 51.01732 3.06886 22993 ft 504 kts 110°
2026-05-04 18:00 51.00765 3.12167 22993 ft 502 kts 110°
2026-05-04 18:01 50.99842 3.17412 22958 ft 491 kts 109°
2026-05-04 18:01 50.98929 3.22610 22993 ft 479 kts 109°
2026-05-04 18:01 50.98032 3.27597 22997 ft 469 kts 110°
2026-05-04 18:02 50.96243 3.37074 22319 ft 438 kts 111°
2026-05-04 18:02 50.94287 3.47428 18011 ft 481 kts 108°
2026-05-04 18:02 50.93446 3.52287 18329 ft 437 kts 108°
2026-05-04 18:03 50.92636 3.56713 18796 ft 404 kts 109°
2026-05-04 18:03 50.91820 3.60969 19263 ft 414 kts 110°
2026-05-04 18:03 50.90940 3.65406 19781 ft 431 kts 111°
2026-05-04 18:03 50.90039 3.70003 20284 ft 447 kts 110°
2026-05-04 18:04 50.89114 3.74776 20785 ft 461 kts 110°
2026-05-04 18:04 50.88153 3.79753 21294 ft 474 kts 110°
2026-05-04 18:04 50.86195 3.89907 22290 ft 492 kts 110°
2026-05-04 18:05 50.85199 3.95065 22779 ft 496 kts 110°
2026-05-04 18:05 50.84182 4.00318 22967 ft 502 kts 110°
2026-05-04 18:05 50.83162 4.05583 22963 ft 499 kts 110°
2026-05-04 18:05 50.82149 4.10796 22967 ft 498 kts 110°
2026-05-04 18:06 50.80107 4.21262 22968 ft 498 kts 110°
2026-05-04 18:06 50.79078 4.26507 22962 ft 498 kts 110°
2026-05-04 18:06 50.78061 4.31683 22965 ft 498 kts 110°
2026-05-04 18:07 50.77036 4.36885 22966 ft 498 kts 110°
2026-05-04 18:07 50.75999 4.42136 22966 ft 498 kts 110°
2026-05-04 18:07 50.74972 4.47317 22966 ft 498 kts 110°
2026-05-04 18:07 50.73939 4.52518 22965 ft 498 kts 110°
2026-05-04 18:08 50.72895 4.57758 22965 ft 498 kts 110°
2026-05-04 18:08 50.71859 4.62946 22965 ft 498 kts 110°
2026-05-04 18:08 50.70821 4.68136 22965 ft 497 kts 111°
2026-05-04 18:08 50.69782 4.73332 22966 ft 497 kts 111°
2026-05-04 18:09 50.67702 4.83686 22966 ft 497 kts 111°
2026-05-04 18:09 50.65407 4.93967 22965 ft 494 kts 117°
2026-05-04 18:10 50.63965 4.98820 22968 ft 493 kts 119°
2026-05-04 18:10 50.62478 5.03672 22966 ft 493 kts 119°
2026-05-04 18:10 50.61006 5.08529 22966 ft 493 kts 118°
2026-05-04 18:10 50.59539 5.13385 22965 ft 493 kts 118°
2026-05-04 18:11 50.58064 5.18257 22965 ft 493 kts 118°
2026-05-04 18:11 50.56594 5.23099 22966 ft 493 kts 118°
2026-05-04 18:11 50.55122 5.27944 22966 ft 493 kts 118°
2026-05-04 18:11 50.53638 5.32819 22965 ft 493 kts 118°
2026-05-04 18:12 50.52161 5.37660 22966 ft 493 kts 118°
2026-05-04 18:12 50.50680 5.42504 22966 ft 493 kts 118°
2026-05-04 18:12 50.49188 5.47378 22966 ft 493 kts 118°
2026-05-04 18:12 50.47712 5.52192 22966 ft 493 kts 118°
2026-05-04 18:13 50.46215 5.57059 22966 ft 493 kts 118°
2026-05-04 18:13 50.44741 5.61844 22966 ft 493 kts 118°
2026-05-04 18:13 50.41765 5.71493 22966 ft 492 kts 119°
2026-05-04 18:14 50.40266 5.76345 22966 ft 492 kts 119°
2026-05-04 18:14 50.38768 5.81181 22966 ft 492 kts 119°
2026-05-04 18:14 50.37275 5.85989 22966 ft 492 kts 119°
2026-05-04 18:15 50.34282 5.95591 22966 ft 492 kts 119°
2026-05-04 18:15 50.31262 6.05237 22966 ft 492 kts 119°
2026-05-04 18:15 50.29762 6.10014 22966 ft 493 kts 119°
2026-05-04 18:16 50.28264 6.14773 22966 ft 493 kts 119°
2026-05-04 18:16 50.26744 6.19596 22966 ft 493 kts 119°
2026-05-04 18:16 50.25233 6.24379 22966 ft 493 kts 119°
2026-05-04 18:17 50.22223 6.33971 23106 ft 491 kts 118°
2026-05-04 18:17 50.20752 6.38739 23959 ft 486 kts 119°
2026-05-04 18:17 50.18003 6.47400 26859 ft 412 kts 117°
2026-05-04 18:18 50.16984 6.51314 28349 ft 368 kts 116°
2026-05-04 18:18 50.16094 6.54821 28994 ft 354 kts 117°
2026-05-04 18:18 50.15023 6.58493 28180 ft 388 kts 121°
2026-05-04 18:18 50.13912 6.62457 27899 ft 403 kts 114°
2026-05-04 18:19 50.12094 6.70296 27986 ft 368 kts 115°
2026-05-04 18:19 50.11177 6.73959 27851 ft 360 kts 119°
2026-05-04 18:19 50.10112 6.77409 27683 ft 351 kts 126°
2026-05-04 18:20 50.08953 6.80698 27457 ft 349 kts 124°